GFSMA_sfc_temp_159.txt.gz
Temp
70 70 70 70 70 71 71 72 72 71 72 73 73 73 73 73 72 71 73 78 80 81 83 83 82 81 82 80 80 81 82 82 81 80 81 80 80 80 80 80 80 80 80
70 70 69 70 70 70 71 71 72 72 71 72 74 73 73 72 70 69 70 73 81 81 82 82 82 81 81 82 80 80 80 80 80 80 79 79 80 80 80 80 80 80 79
69 69 69 69 69 69 71 73 71 72 71 72 72 72 73 72 70 72 70 73 75 81 79 81 81 81 81 81 80 80 79 79 79 79 79 79 79 79 79 79 80 79 79
71 68 69 70 69 69 70 71 70 70 70 68 68 70 72 72 73 72 71 72 74 76 78 81 81 81 82 81 80 79 79 78 78 79 79 79 79 79 79 79 79 79 79
72 70 70 69 69 68 69 69 71 71 68 68 70 70 70 70 71 72 71 73 74 74 74 80 79 80 82 81 81 79 79 79 78 78 78 79 79 79 79 79 79 78 78
71 70 69 70 69 67 68 70 70 70 68 68 73 72 68 69 69 69 70 75 73 73 74 73 72 75 79 80 80 79 79 79 78 78 78 78 78 78 78 78 78 78 78
73 71 70 70 68 67 69 70 70 69 67 67 65 65 66 68 69 68 69 70 72 72 71 71 72 71 74 78 79 79 79 79 79 78 77 77 77 77 77 77 77 77 77
73 72 70 69 68 68 70 70 69 67 66 67 65 63 63 66 68 70 68 71 69 70 72 71 71 70 71 72 75 78 79 79 79 78 77 77 77 76 76 76 76 77 77
74 72 70 69 68 68 68 69 69 69 68 68 67 66 63 63 65 66 67 68 69 67 69 69 70 70 70 72 73 76 78 78 79 79 78 77 76 76 76 76 76 76 76
73 73 71 71 69 69 68 70 74 72 70 68 68 69 66 67 64 62 66 66 67 69 69 69 68 69 69 71 75 77 77 77 78 78 78 78 77 77 77 77 76 76 76
73 73 72 71 70 70 70 70 73 72 72 71 70 67 66 66 64 62 61 63 66 68 70 70 69 68 68 68 70 75 76 76 76 77 77 78 78 78 78 77 77 77 76
71 72 73 71 70 71 72 72 74 74 72 72 71 70 67 67 65 64 62 62 62 66 68 69 68 66 66 68 75 77 76 75 75 75 75 76 77 78 78 78 78 77 77
70 72 73 71 71 73 73 74 73 73 73 72 72 71 70 70 68 66 64 62 62 65 67 68 69 66 69 69 73 75 75 74 74 73 73 74 75 76 77 78 78 78 78
71 72 73 73 72 74 75 74 73 73 73 73 74 72 71 71 71 68 67 64 63 64 65 67 69 67 68 70 72 75 72 72 72 72 71 72 73 74 75 76 76 77 78
72 72 74 74 73 74 75 74 72 73 72 72 72 72 71 72 71 71 69 68 67 63 64 66 66 68 68 69 73 72 71 72 71 71 70 70 71 72 73 74 74 73 74
71 72 72 72 73 74 76 74 72 72 72 72 72 71 71 71 71 72 72 70 68 67 64 66 67 68 69 71 74 70 70 71 71 70 70 70 70 71 71 72 72 72 72
71 71 71 71 73 73 75 73 71 72 72 71 72 72 72 72 71 71 71 70 69 69 66 67 68 68 67 69 69 69 69 67 68 67 66 66 66 66 66 67 68 70 70
71 71 72 72 73 73 73 72 72 74 72 71 72 71 72 77 72 71 71 70 70 69 68 67 67 68 68 69 68 67 68 68 68 65 64 64 64 64 63 63 64 65 66
71 71 71 72 72 72 72 72 72 72 72 72 72 71 72 71 71 72 70 70 69 70 68 67 66 68 67 69 68 67 64 62 66 65 64 63 63 62 62 61 61 61 62
71 71 72 72 71 72 72 71 71 71 71 73 73 72 72 71 71 71 71 69 69 68 68 67 66 66 67 70 68 67 62 61 62 68 65 64 64 63 62 62 61 60 58
71 71 70 70 70 68 68 67 69 70 71 71 73 73 72 71 71 71 70 70 69 68 67 66 66 65 65 68 67 68 63 61 63 62 62 61 60 58 59 61 63 62 60
69 69 69 67 65 65 63 64 66 69 70 71 72 72 71 70 69 67 67 68 70 69 68 66 66 65 65 65 66 67 63 61 61 63 62 61 64 61 59 58 62 61 60
68 67 66 65 63 62 62 62 65 69 69 68 68 69 70 70 69 68 66 66 66 65 66 69 68 63 65 63 63 67 66 63 64 63 63 59 60 59 62 62 62 61 60
67 66 64 63 62 60 59 60 63 68 64 62 63 65 67 67 66 67 64 62 61 62 63 64 61 58 58 59 60 64 67 63 62 60 61 59 60 58 61 60 61 61 60
65 64 64 62 61 60 58 59 63 67 62 60 60 59 62 64 60 63 63 61 61 61 62 62 62 62 62 62 62 63 63 63 60 59 57 61 59 56 55 54 56 58 58
61 60 59 59 58 59 57 57 60 66 61 59 59 59 58 57 56 59 64 62 59 59 60 60 60 61 62 62 62 61 60 62 59 56 56 57 58 56 54 55 54 54 54

GFSMA_sfc_temp_162.txt.gz
Temp
71 72 70 72 73 73 74 73 73 74 73 74 74 74 73 73 74 72 71 76 77 81 83 84 81 81 82 82 81 81 81 81 81 81 81 80 80 80 80 80 80 80 80
72 71 71 72 72 73 74 73 73 73 73 74 74 73 74 74 74 74 74 73 77 81 82 83 81 81 81 81 80 80 80 80 80 81 80 80 80 80 80 80 80 80 79
72 71 71 71 72 72 74 74 74 73 72 74 73 74 74 74 73 73 74 74 75 80 82 82 80 81 82 81 81 81 80 79 79 79 79 79 79 80 80 80 80 80 79
73 71 71 71 72 72 73 74 73 73 72 71 72 72 73 74 75 74 75 74 76 79 80 81 80 81 82 81 81 80 79 78 78 79 79 79 79 79 79 79 79 79 79
73 71 71 71 72 71 71 73 73 72 71 70 72 72 72 72 73 73 74 76 76 78 77 79 79 80 82 81 81 81 80 79 78 78 78 78 79 79 79 78 79 79 78
74 72 71 72 72 71 71 72 73 72 71 71 75 73 71 70 71 71 72 76 76 76 77 77 78 79 79 80 81 81 80 79 78 78 77 78 78 78 78 78 78 78 78
74 73 72 72 72 72 71 73 72 72 70 70 69 70 69 72 72 71 71 73 74 75 75 74 75 76 78 78 79 80 80 79 79 78 77 77 77 77 77 77 77 77 78
74 73 72 72 72 71 73 73 72 70 69 70 69 67 67 71 72 74 72 72 72 73 76 75 75 75 76 78 79 79 79 79 79 79 77 77 77 77 77 76 76 77 77
75 72 73 71 71 71 71 72 72 72 71 70 71 70 67 67 68 70 71 72 72 73 74 74 74 74 75 77 78 79 78 78 79 79 78 77 77 76 77 76 76 76 76
75 74 73 72 72 71 72 73 76 74 73 72 70 71 70 70 68 68 70 71 72 73 73 72 73 73 74 77 77 78 77 77 77 79 78 78 77 77 77 77 76 76 76
75 75 74 73 72 72 73 74 76 76 74 73 72 70 69 69 67 67 67 69 71 72 73 73 75 74 73 75 77 77 76 76 76 76 77 78 78 78 78 77 77 77 77
73 75 74 73 74 73 74 75 76 77 75 74 74 71 71 72 70 68 67 67 68 71 73 74 72 72 72 73 77 76 76 75 75 75 75 76 78 78 79 79 78 78 77
72 74 74 74 73 75 76 76 76 76 76 76 75 74 73 73 71 69 69 67 68 70 71 72 71 72 74 74 78 77 75 74 73 73 73 74 75 76 78 78 78 78 78
73 75 75 76 75 76 77 77 76 76 77 76 77 75 74 75 75 73 71 70 69 69 69 72 73 74 73 74 76 75 77 72 72 71 72 72 73 74 75 76 77 77 77
74 75 75 75 74 76 77 76 76 76 76 76 76 76 75 76 75 74 74 74 73 69 70 72 71 73 74 75 76 77 76 72 72 71 70 71 71 72 73 74 74 74 74
73 75 74 75 75 76 76 76 75 76 76 75 76 76 76 76 75 77 77 75 73 73 70 73 71 72 74 75 75 75 75 71 69 70 70 70 70 71 72 72 72 72 72
73 73 74 74 74 76 77 76 75 75 75 75 76 75 76 76 75 76 76 76 75 74 73 73 73 73 72 72 73 73 72 70 70 67 67 66 66 66 66 67 68 70 70
74 73 74 74 74 75 75 75 75 77 75 75 76 75 76 79 76 76 76 75 75 74 74 73 72 71 72 73 72 70 71 70 69 65 65 64 64 63 63 63 64 65 66
73 74 74 74 74 74 75 75 75 75 75 75 76 75 76 75 76 75 75 74 74 75 72 72 72 72 72 71 69 69 68 67 70 65 64 63 63 63 63 62 61 61 61
72 73 73 74 73 74 75 75 74 74 74 75 75 75 76 75 75 75 75 73 74 72 72 71 70 71 71 72 71 68 66 66 67 72 67 65 64 64 63 62 63 61 59
73 73 73 73 72 72 69 68 70 72 72 73 75 76 75 73 71 72 74 72 71 71 72 71 70 69 70 70 69 69 67 64 65 66 65 65 64 65 66 64 63 62 59
72 72 72 70 68 66 63 64 66 69 72 72 72 74 73 71 70 67 66 67 69 73 69 69 68 67 67 69 70 68 65 64 64 66 62 60 62 64 61 62 62 61 60
69 67 67 66 64 63 61 62 66 71 70 69 70 71 72 71 71 69 66 66 64 64 66 70 71 65 66 65 67 69 66 65 67 65 66 60 62 59 60 62 61 60 59
67 66 65 65 64 61 59 60 65 67 66 65 65 66 68 68 65 67 65 62 61 60 62 65 61 61 61 60 63 68 68 65 63 63 65 64 65 59 60 60 60 59 57
65 64 63 62 62 60 57 59 63 66 63 62 61 61 62 64 60 63 64 60 59 59 62 62 61 61 62 62 63 67 65 65 61 59 59 62 61 57 57 55 56 57 56
61 61 59 60 59 60 56 58 61 64 62 61 60 59 58 57 58 61 65 63 60 59 60 60 61 61 61 61 61 61 64 63 60 57 58 58 58 57 54 54 54 54 54

GFSMA_sfc_temp_168.txt.gz
Temp
90 94 92 97 95 97 98 96 94 94 92 92 92 89 91 91 90 94 96 81 80 81 84 84 84 83 83 82 82 82 81 81 81 82 81 82 82 81 81 81 81 81 81
92 92 92 95 96 97 97 96 92 92 91 93 93 90 90 87 88 89 96 91 82 82 83 83 83 82 82 82 82 82 81 80 80 80 81 81 81 81 81 81 80 80 80
89 89 94 94 95 94 92 93 92 94 94 95 89 91 93 86 88 89 95 96 92 82 83 83 82 82 83 83 83 83 82 81 80 80 81 81 80 80 80 80 80 80 80
88 88 93 94 90 93 96 96 95 96 95 94 92 91 90 90 85 91 95 96 97 99 85 82 82 82 83 83 83 82 82 81 80 79 80 80 80 80 80 80 80 79 80
88 91 94 92 90 94 95 96 94 92 92 94 93 91 92 89 83 88 91 94 95 95 99 79 81 81 82 82 82 82 81 80 80 79 79 79 80 80 80 79 79 79 79
88 89 92 90 91 94 94 95 89 91 92 91 96 93 93 94 92 85 89 97 95 96 98 93 94 89 81 81 81 81 81 81 80 79 79 79 79 79 79 79 79 78 79
89 87 93 90 91 90 91 90 92 88 93 91 91 92 91 92 92 94 95 96 92 95 94 95 95 95 91 82 80 80 81 81 80 79 78 78 79 79 79 78 78 78 78
89 90 88 91 87 92 89 90 88 92 92 93 89 89 85 86 91 96 94 94 90 95 97 93 92 91 92 94 85 80 80 80 80 79 78 78 78 78 78 78 78 78 78
90 88 87 88 88 89 92 86 90 87 91 91 87 87 85 85 89 92 90 93 90 95 96 93 91 91 91 92 84 83 80 79 80 80 79 78 78 78 78 78 77 78 78
89 89 88 87 86 93 88 90 93 91 87 87 92 93 90 87 86 85 91 91 92 88 90 93 91 90 90 94 80 79 78 78 78 79 79 78 78 78 78 78 78 77 77
89 89 88 88 88 92 89 89 90 88 93 91 89 92 88 92 88 87 84 86 91 92 91 91 95 93 90 93 93 80 77 77 77 77 79 79 79 79 79 78 78 78 78
92 89 90 89 89 90 88 90 90 88 89 90 92 90 91 91 90 88 85 83 84 89 93 94 92 92 92 93 85 77 77 76 76 76 76 77 79 79 80 80 79 79 78
92 89 89 88 91 89 90 89 88 89 90 90 88 92 94 93 93 92 87 86 87 90 90 94 92 91 91 93 90 82 76 75 75 75 75 76 76 78 79 80 80 79 79
91 91 90 90 90 90 90 89 91 92 89 90 88 88 92 96 95 94 88 83 85 88 88 87 91 92 92 91 82 79 83 74 74 74 74 74 75 76 77 78 78 79 79
94 90 89 88 90 90 90 89 91 89 89 88 89 89 89 96 96 96 94 88 87 81 78 87 90 91 92 91 84 87 85 71 74 73 73 73 74 75 75 76 76 76 77
89 88 88 90 89 90 89 88 89 90 87 90 92 89 87 93 92 94 94 95 93 88 82 94 92 90 91 90 83 83 81 76 71 71 71 70 71 72 73 74 74 74 75
88 87 87 88 88 89 89 87 88 89 87 87 88 88 87 87 91 92 93 91 87 92 88 87 93 87 85 86 85 82 83 85 80 68 68 67 67 67 67 68 68 69 71
88 87 87 88 87 88 88 87 88 91 88 87 88 87 87 92 86 87 91 85 88 88 87 82 83 85 83 80 79 81 87 89 89 67 66 65 65 65 65 65 65 65 65
86 88 87 86 87 88 87 87 88 89 89 89 88 87 87 88 84 89 88 89 89 88 88 86 81 87 83 80 76 81 82 84 86 66 65 65 65 64 64 63 62 61 61
87 87 85 87 87 88 88 89 88 86 88 89 89 89 88 88 86 85 86 84 86 82 84 85 79 78 81 81 82 81 79 85 85 84 71 72 70 66 65 63 62 61 59
87 87 86 86 87 87 90 86 87 87 85 85 87 87 86 81 70 73 83 82 80 80 78 83 86 84 80 77 74 74 75 77 76 80 76 72 73 71 63 61 63 62 60
85 85 85 85 85 88 65 67 73 86 85 84 84 85 83 74 70 66 67 65 70 79 76 76 73 74 75 81 78 74 71 70 68 78 76 76 77 70 71 70 61 60 60
85 84 83 84 84 83 65 65 69 84 83 83 80 81 80 78 76 75 66 65 64 65 65 71 72 71 76 78 80 75 74 75 70 72 73 69 74 69 70 68 60 60 59
78 77 78 79 78 74 61 63 69 82 80 79 78 77 76 76 76 76 78 74 74 73 72 72 65 68 66 67 77 77 74 71 70 70 69 65 69 66 67 65 59 58 57
72 71 73 74 74 71 59 60 67 81 79 76 74 73 78 78 62 65 75 72 72 71 63 61 61 62 62 64 67 75 73 70 66 64 65 65 62 58 57 57 60 58 56
66 66 66 67 62 67 58 57 66 77 75 75 71 66 58 62 60 61 71 68 62 65 67 65 73 69 67 66 64 74 76 69 67 62 60 59 56 55 52 56 57 58 57

GFSMA_sfc_temp_171.txt.gz
Temp
92 94 93 98 97 99 98 96 96 95 93 95 95 92 92 92 92 97 91 82 82 83 85 84 84 83 82 82 82 82 82 81 81 81 82 82 82 81 81 81 81 81 81
93 93 93 97 98 99 99 97 93 93 92 94 94 91 90 89 89 91 93 88 83 83 84 84 83 83 83 83 83 83 82 81 80 81 81 81 81 81 81 81 80 80 80
91 91 94 95 96 96 93 94 93 95 96 97 92 91 93 88 91 92 97 94 88 83 84 83 82 82 83 83 83 84 82 82 80 80 80 81 81 81 80 80 80 80 80
90 89 93 95 93 94 98 97 96 97 97 96 93 94 92 92 86 92 96 98 96 82 84 83 82 82 83 83 83 82 81 81 80 80 80 81 81 80 80 80 80 79 79
91 92 95 93 91 96 97 97 95 93 94 95 94 94 93 91 90 94 94 96 96 90 82 82 82 82 83 82 82 82 81 81 80 79 80 80 80 80 80 80 80 79 79
91 90 95 93 91 95 95 95 90 93 93 93 98 95 94 95 92 90 94 99 96 97 93 93 82 85 82 82 81 81 82 80 80 79 79 80 80 80 80 79 79 79 79
91 90 94 91 92 91 91 92 92 90 94 94 91 92 91 93 94 96 96 97 94 95 94 94 85 89 87 81 80 80 81 81 80 79 79 79 79 79 79 79 79 79 79
91 91 90 92 89 94 89 91 89 92 94 93 89 90 68 70 93 97 95 94 91 96 89 94 92 91 93 91 84 80 80 80 80 80 79 79 79 79 79 78 78 78 78
92 91 90 90 89 89 84 89 91 89 86 93 89 88 81 75 68 93 91 94 91 94 95 94 92 92 92 93 85 82 80 79 80 80 79 78 78 78 78 78 78 78 78
92 92 91 89 88 91 91 89 93 89 89 85 92 95 91 88 82 72 91 91 91 90 91 92 91 92 91 90 83 79 79 78 79 79 79 79 78 78 78 78 78 78 78
92 92 90 90 89 83 90 90 90 89 85 89 88 90 88 91 89 86 82 82 89 93 93 93 88 87 90 88 89 80 78 78 77 78 79 79 79 79 79 79 79 78 78
92 91 91 90 90 90 90 92 90 89 89 89 91 91 90 83 69 84 84 85 86 89 86 91 94 93 94 87 85 78 78 77 77 77 77 77 79 80 80 80 79 79 79
90 89 90 89 91 90 91 91 89 89 90 88 88 92 95 94 89 74 85 88 81 89 80 94 93 93 93 87 87 83 77 76 76 76 76 76 77 78 79 79 80 80 80
93 90 90 92 91 92 91 91 91 91 86 90 89 89 92 92 96 89 90 87 80 73 87 87 93 91 93 80 81 80 80 75 75 75 75 75 76 77 77 78 79 78 79
76 91 92 91 92 91 91 90 91 89 89 89 90 89 89 86 94 93 94 91 87 81 84 79 81 91 88 85 83 88 85 72 75 74 74 75 75 76 77 77 77 77 78
90 82 91 91 90 91 91 88 89 88 88 89 87 85 88 92 94 90 93 83 90 86 82 72 91 89 92 86 82 85 82 76 73 72 71 70 71 71 72 73 74 75 76
89 89 89 89 89 90 91 88 86 87 87 87 88 88 88 89 90 91 93 93 88 85 75 78 89 88 86 85 85 84 82 82 77 68 68 67 67 67 68 68 68 69 70
89 88 88 88 88 90 89 88 88 83 88 87 87 88 86 93 86 88 92 87 88 88 86 80 84 84 84 84 83 82 82 85 78 67 66 66 65 65 64 64 64 65 66
88 89 88 87 87 89 89 89 89 89 86 90 90 89 88 88 86 88 88 83 81 87 88 87 80 82 81 85 81 81 82 79 80 67 65 65 65 64 63 62 61 61 62
88 88 88 88 88 89 89 89 89 88 88 90 90 90 87 87 84 85 85 86 87 80 81 79 83 80 79 77 82 77 77 79 74 82 72 71 68 64 64 63 62 60 59
88 88 87 87 88 89 91 88 88 86 86 87 89 89 87 77 70 72 81 81 80 79 76 72 71 71 77 73 74 80 76 75 76 78 77 75 72 67 65 65 64 62 59
85 84 85 85 86 90 68 70 74 86 86 84 83 85 84 74 70 66 67 65 68 78 77 75 73 71 72 71 71 75 75 74 68 73 70 71 75 70 68 65 61 61 59
85 85 84 85 84 84 67 69 69 82 85 82 82 81 81 78 77 78 67 66 66 66 66 76 74 69 69 68 73 72 74 74 69 73 69 66 68 64 66 64 61 60 59
81 82 83 83 82 72 64 65 67 80 82 82 81 79 79 79 72 76 80 79 77 73 71 80 74 72 71 69 72 74 73 70 71 70 68 62 65 63 65 62 60 59 58
77 77 77 79 77 70 60 61 68 80 77 77 77 72 71 77 64 65 77 76 74 71 64 62 62 63 64 63 65 74 73 73 67 63 61 63 62 57 57 57 60 58 56
67 66 65 66 64 67 58 59 67 77 76 77 76 73 59 63 61 62 72 72 66 64 65 66 63 64 64 65 65 68 67 67 63 61 61 58 55 53 51 58 60 60 59

GFSMA_sfc_temp_174.txt.gz
Temp
86 85 86 79 79 73 75 73 76 87 86 88 87 85 84 86 87 83 82 82 82 83 84 84 83 83 82 82 82 82 82 81 82 81 82 82 80 80 80 81 81 80 80
86 88 86 87 87 74 78 88 86 87 86 87 86 85 85 85 85 84 83 81 82 83 83 83 83 83 83 83 83 82 82 81 80 81 81 81 81 80 80 80 80 80 80
87 84 86 85 86 87 88 87 86 86 87 89 85 86 85 83 84 85 77 83 82 82 82 82 82 83 83 83 83 83 83 82 81 80 80 80 80 80 80 80 80 80 79
86 86 86 87 86 85 87 88 87 76 86 87 85 84 84 84 84 85 86 75 80 82 80 82 82 82 83 82 82 82 81 80 80 80 80 80 81 80 80 79 80 79 79
89 85 86 86 85 85 86 77 77 85 85 86 86 84 82 83 84 88 86 84 85 80 77 81 81 82 83 83 82 81 81 80 80 80 80 81 81 80 80 79 79 79 78
88 85 86 87 85 85 84 84 84 85 84 85 88 81 75 77 83 83 85 82 88 82 81 81 80 81 82 82 81 81 81 80 79 79 80 80 80 80 79 79 79 79 78
88 86 85 85 85 84 76 83 85 84 84 85 73 65 68 72 73 84 87 73 87 88 88 81 79 81 80 80 80 80 81 80 80 79 79 79 79 79 79 78 78 78 78
89 86 85 86 86 84 84 84 84 76 68 77 66 67 66 65 66 71 86 86 85 85 87 86 85 83 80 81 78 80 79 80 80 79 79 79 79 79 78 78 78 78 78
88 87 87 86 84 81 71 75 81 78 65 73 84 76 66 62 65 71 84 83 84 82 85 84 85 85 83 79 79 79 78 78 80 80 79 78 78 78 78 78 77 77 77
88 87 88 87 86 81 72 76 86 81 79 74 74 78 85 75 68 66 76 81 82 84 84 82 83 84 82 80 79 79 78 78 78 79 79 79 78 78 78 78 78 77 77
89 91 87 86 85 71 70 79 84 82 81 78 76 79 79 71 69 69 70 75 80 81 82 83 82 82 84 81 75 77 77 77 77 77 78 79 79 79 79 79 78 78 78
86 88 87 86 83 72 70 80 84 84 81 82 81 81 81 72 68 71 75 77 77 80 82 82 83 81 81 80 82 77 77 76 76 76 76 77 79 80 80 80 79 79 79
81 84 84 84 85 83 81 86 85 83 83 82 82 82 83 80 76 69 69 74 73 72 78 82 82 83 84 79 77 77 76 76 75 75 75 75 76 77 79 79 80 80 80
75 78 84 86 85 83 86 86 84 83 79 82 85 82 81 76 81 73 76 78 74 72 77 79 82 82 80 80 78 77 75 75 74 74 74 74 75 75 76 77 78 78 78
76 76 76 85 87 86 84 84 82 83 84 84 83 83 80 76 74 81 83 81 77 72 69 72 71 79 78 80 78 78 75 73 74 74 73 74 74 75 75 76 76 76 77
74 72 75 87 87 85 86 85 84 84 82 83 82 77 79 81 77 82 80 81 80 76 71 71 70 80 80 81 78 79 75 74 73 70 69 69 70 70 70 71 73 75 76
78 78 78 85 84 86 85 83 82 82 80 79 82 83 82 83 82 82 82 82 81 79 72 73 72 78 78 77 79 77 75 73 69 68 67 67 67 67 67 68 69 69 70
84 82 82 83 84 83 85 85 84 78 73 77 82 81 81 87 82 81 81 81 81 80 76 74 75 76 77 79 78 76 76 76 69 67 66 65 65 64 64 64 64 65 66
84 84 83 83 84 83 84 84 84 83 75 79 81 84 84 82 81 80 79 77 78 79 77 76 73 75 75 78 77 76 73 70 70 66 65 64 64 64 63 62 61 60 63
82 83 83 82 82 83 83 84 84 84 82 85 83 82 81 81 79 81 80 78 80 77 76 73 72 71 72 74 73 71 70 69 69 76 70 67 65 65 64 62 62 60 58
82 82 82 82 83 84 87 84 83 82 82 82 82 82 74 72 69 70 77 78 77 75 73 72 71 69 69 69 69 70 69 69 69 69 66 68 66 65 65 64 63 61 59
82 82 81 81 81 85 69 71 79 81 83 81 80 80 75 71 68 67 67 66 67 75 74 73 72 71 71 69 70 69 68 68 66 72 69 66 66 61 61 61 61 61 60
79 79 79 80 80 76 69 70 71 81 80 80 79 79 78 75 76 74 67 67 67 67 68 72 72 69 69 67 68 69 69 69 67 67 67 62 63 59 61 61 60 60 59
78 77 78 79 78 66 65 67 68 78 78 79 76 73 77 75 70 75 76 72 68 66 66 72 67 65 66 68 68 71 69 67 65 64 67 58 62 58 59 59 60 59 58
74 76 72 75 74 66 61 62 68 78 76 74 71 66 72 71 64 65 73 70 67 65 63 63 63 63 64 64 66 69 67 66 64 61 61 58 57 55 57 56 57 58 57
69 68 66 66 64 66 58 59 64 71 71 73 72 69 59 61 60 63 70 70 64 61 61 61 60 63 64 64 64 65 66 64 62 59 59 55 53 55 51 56 57 58 58